Weather History for Lemoore (Abandoned) Willett A, CO

Change the Weather History Date:

Tuesday, December 10, 2013

  Actual Average (KBJC) Record (KBJC)
Temperature  
Mean Temperature 28 °F -  
Max Temperature 48 °F 44 °F 66 °F (1990)
Min Temperature 9 °F 25 °F -5 °F (1986)
Degree Days  
Heating Degree Days 36    
Moisture  
Dew Point 9 °F    
Average Humidity 42    
Maximum Humidity 67    
Minimum Humidity 23    
Precipitation  
Precipitation 0.02 in - - ()
Sea Level Pressure  
Sea Level Pressure 30.01 in    
Wind  
Wind Speed 8 mph (NW)    
Max Wind Speed 36 mph    
Max Gust Speed 44 mph    
Visibility 10 miles    
Events      
Averages and records for this station are not official NWS values.
T = Trace of Precipitation, MM = Missing Value Source: NWS Daily Summary

Daily Weather History Graph

Daily Weather History Graph

Search for Another Location

Airport:

Trip Planner

Search our weather history database for the weather conditions in past years. The results will help you decide how hot, cold, wet, or windy it might be!

Date:

Astronomy

Dec. 10, 2013 Rise Set
Actual Time 7:12 AM MST 4:34 PM MST
Civil Twilight 6:41 AM MST 5:05 PM MST
Nautical Twilight 6:07 AM MST 5:39 PM MST
Astronomical Twilight 5:34 AM MST 6:12 PM MST
Moon 12:37 PM MST (12/10) 12:32 AM MST (12/10)
Length of Visible Light 10h 23m
Length of Day
9h 22m
Waxing Gibbous, 62% of the Moon is Illuminated
Dec 10
Waxing Gibbous
Dec 17
Full
Dec 25
Last Quarter
Jan 1
New
Jan 7
First Quarter

Hourly Weather History & Observations

Time (MST) Temp. Windchill Dew Point Humidity Pressure Visibility Wind Dir Wind Speed Gust Speed Precip Events Conditions
12:12 AM 27.9 °F 19.1 °F 1.8 °F 33% 30.08 in 10.0 mi SW 9.2 mph - N/A   Clear
12:32 AM 27.7 °F 22.4 °F 1.2 °F 32% 30.07 in 10.0 mi West 4.6 mph - N/A   Clear
12:52 AM 25.0 °F 18.1 °F 0.7 °F 35% 30.06 in 10.0 mi SSW 5.8 mph - N/A   Clear
1:12 AM 27.1 °F 20.7 °F 2.1 °F 34% 30.05 in 10.0 mi South 5.8 mph - N/A   Clear
1:32 AM 21.0 °F - 1.9 °F 44% 30.04 in 10.0 mi Calm Calm - N/A   Clear
1:52 AM 19.4 °F 10.4 °F 1.0 °F 45% 30.05 in 10.0 mi West 6.9 mph - N/A   Clear
2:12 AM 15.6 °F 8.3 °F 0.3 °F 51% 30.04 in 10.0 mi NNW 4.6 mph - N/A   Clear
2:32 AM 15.1 °F 4.2 °F 0.3 °F 52% 30.03 in 10.0 mi NW 8.1 mph - N/A   Clear
2:52 AM 14.0 °F 8.2 °F 1.9 °F 59% 30.04 in 10.0 mi NW 3.5 mph - N/A   Clear
3:12 AM 13.3 °F 4.2 °F -1.7 °F 51% 30.03 in 10.0 mi NNW 5.8 mph - N/A   Clear
3:32 AM 12.6 °F - -0.2 °F 57% 30.03 in 10.0 mi Calm Calm - N/A   Clear
3:52 AM 9.7 °F 1.4 °F -1.1 °F 62% 30.03 in 10.0 mi NNW 4.6 mph - N/A   Clear
4:12 AM 12.0 °F 2.7 °F 1.2 °F 62% 30.02 in 10.0 mi NNW 5.8 mph - N/A   Clear
4:32 AM 12.7 °F 6.7 °F 1.8 °F 62% 30.03 in 10.0 mi West 3.5 mph - N/A   Clear
4:52 AM 12.4 °F - 1.8 °F 63% 30.03 in 10.0 mi Calm Calm - N/A   Clear
5:12 AM 14.5 °F 8.8 °F 1.6 °F 57% 30.02 in 10.0 mi NNW 3.5 mph - N/A   Clear
5:32 AM 11.1 °F - 0.7 °F 63% 30.02 in 10.0 mi Calm Calm - N/A   Clear
5:52 AM 12.2 °F 4.3 °F 1.0 °F 61% 30.02 in 10.0 mi North 4.6 mph - N/A   Clear
6:12 AM 12.7 °F 2.4 °F 2.5 °F 64% 30.00 in 10.0 mi ESE 6.9 mph - N/A   Clear
6:32 AM 15.4 °F 9.8 °F 3.0 °F 58% 30.00 in 10.0 mi WSW 3.5 mph - N/A   Clear
6:52 AM 18.5 °F 11.7 °F 3.7 °F 53% 29.98 in 10.0 mi North 4.6 mph 9.2 mph N/A   Clear
7:12 AM 15.4 °F - 4.5 °F 62% 29.97 in 10.0 mi Calm Calm - N/A   Clear
7:32 AM 23.5 °F - 7.0 °F 49% 29.96 in 10.0 mi Calm Calm - N/A   Clear
7:52 AM 27.3 °F 19.9 °F 5.4 °F 39% 29.95 in 10.0 mi NE 6.9 mph - N/A   Clear
8:12 AM 34.9 °F 27.1 °F 7.3 °F 32% 29.94 in 10.0 mi ENE 10.4 mph 18.4 mph N/A   Clear
8:32 AM 24.3 °F 19.9 °F 8.4 °F 51% 29.97 in 10.0 mi East 3.5 mph - N/A   Clear
8:52 AM 27.3 °F 19.9 °F 8.8 °F 46% 29.95 in 10.0 mi SE 6.9 mph - N/A   Clear
9:12 AM 31.6 °F 24.4 °F 9.5 °F 40% 29.95 in 10.0 mi NE 8.1 mph - N/A   Clear
9:32 AM 36.7 °F 34.1 °F 10.0 °F 33% 29.95 in 10.0 mi West 3.5 mph - N/A   Clear
9:52 AM 45.0 °F 37.1 °F 11.1 °F 25% 29.93 in 10.0 mi West 19.6 mph 29.9 mph 0.02 in   Clear
10:12 AM 45.3 °F 34.9 °F 11.3 °F 25% 29.92 in 1.8 mi WNW 35.7 mph 43.7 mph N/A   Haze
10:32 AM 44.4 °F 37.2 °F 13.6 °F 29% 29.93 in 10.0 mi NW 16.1 mph 27.6 mph N/A   Clear
10:52 AM 46.9 °F - 12.2 °F 25% 29.92 in 10.0 mi Calm Calm - N/A   Clear
11:12 AM 46.6 °F - 12.0 °F 25% 29.90 in 10.0 mi SW 20.7 mph 33.4 mph N/A   Clear
11:32 AM 46.0 °F 38.5 °F 12.7 °F 26% 29.91 in 10.0 mi SW 19.6 mph 33.4 mph N/A   Clear
11:52 AM 48.0 °F - 12.0 °F 24% 29.91 in 10.0 mi WSW 13.8 mph 21.9 mph N/A   Clear
12:12 PM 47.3 °F - 10.9 °F 23% 29.91 in 10.0 mi Calm Calm - N/A   Scattered Clouds
12:32 PM 46.4 °F 43.5 °F 11.1 °F 24% 29.90 in 10.0 mi NE 5.8 mph - N/A   Clear
12:52 PM 46.2 °F 42.2 °F 11.8 °F 25% 29.90 in 10.0 mi NE 8.1 mph 20.7 mph N/A   Clear
1:12 PM 47.7 °F - 11.7 °F 23% 29.90 in 10.0 mi North 10.4 mph 21.9 mph N/A   Clear
1:32 PM 47.3 °F - 13.1 °F 25% 29.90 in 10.0 mi NNE 3.5 mph 17.3 mph N/A   Clear
1:52 PM 48.9 °F - 12.6 °F 23% 29.91 in 10.0 mi NW 10.4 mph 19.6 mph N/A   Clear
2:12 PM 47.8 °F - 13.1 °F 25% 29.92 in 10.0 mi East 10.4 mph - N/A   Clear
2:32 PM 46.4 °F 38.7 °F 12.6 °F 26% 29.94 in 10.0 mi West 20.7 mph 28.8 mph N/A   Clear
2:52 PM 44.6 °F 36.6 °F 13.3 °F 28% 29.93 in 10.0 mi West 19.6 mph 28.8 mph N/A   Clear
3:12 PM 43.3 °F 34.2 °F 12.9 °F 29% 29.94 in 10.0 mi West 23.0 mph 34.5 mph N/A   Clear
3:32 PM 40.6 °F 33.0 °F 13.6 °F 33% 29.95 in 10.0 mi WNW 13.8 mph 34.5 mph N/A   Clear
3:52 PM 39.9 °F 30.2 °F 13.3 °F 34% 29.95 in 10.0 mi WNW 20.7 mph 40.3 mph N/A   Clear
4:12 PM 39.6 °F 29.5 °F 13.1 °F 34% 29.93 in 10.0 mi West 21.9 mph 39.1 mph N/A   Clear
4:32 PM 39.2 °F 32.0 °F 12.7 °F 34% 29.92 in 10.0 mi West 11.5 mph 29.9 mph N/A   Clear
4:52 PM 40.1 °F 31.0 °F 13.3 °F 34% 29.93 in 10.0 mi West 18.4 mph 41.4 mph N/A   Clear
5:12 PM 39.2 °F 29.8 °F 12.9 °F 34% 29.95 in 10.0 mi WNW 18.4 mph 29.9 mph N/A   Clear
5:32 PM 39.0 °F 29.3 °F 12.9 °F 34% 29.96 in 10.0 mi West 19.6 mph 34.5 mph N/A   Clear
5:52 PM 39.0 °F 31.8 °F 11.5 °F 32% 29.98 in 10.0 mi WNW 11.5 mph 40.3 mph N/A   Clear
6:12 PM 39.0 °F 31.8 °F 11.1 °F 32% 30.01 in 10.0 mi NNW 11.5 mph 16.1 mph N/A   Clear
6:32 PM 38.7 °F 29.8 °F 11.5 °F 33% 30.02 in 10.0 mi NW 16.1 mph 23.0 mph N/A   Clear
6:52 PM 40.1 °F 32.7 °F 10.6 °F 30% 30.05 in 10.0 mi North 12.7 mph 27.6 mph N/A   Clear
7:12 PM 36.7 °F 31.2 °F 11.8 °F 36% 30.06 in 10.0 mi North 6.9 mph - N/A   Clear
7:32 PM 38.7 °F 33.6 °F 10.8 °F 32% 30.07 in 10.0 mi NW 6.9 mph - N/A   Clear
7:52 PM 37.9 °F 30.9 °F 10.9 °F 33% 30.08 in 10.0 mi WNW 10.4 mph 16.1 mph N/A   Clear
8:12 PM 34.3 °F 27.0 °F 15.1 °F 45% 30.09 in 10.0 mi East 9.2 mph - N/A   Clear
8:32 PM 31.3 °F 23.3 °F 16.0 °F 53% 30.11 in 10.0 mi ESE 9.2 mph - N/A   Clear
8:52 PM 30.9 °F 20.2 °F 15.8 °F 54% 30.13 in 10.0 mi East 15.0 mph - N/A   Clear
9:12 PM 29.3 °F 21.5 °F 15.6 °F 57% 30.14 in 10.0 mi ESE 8.1 mph - N/A   Clear
9:32 PM 29.3 °F 25.6 °F 16.2 °F 58% 30.16 in 10.0 mi SW 3.5 mph - N/A   Clear
9:52 PM 27.5 °F 22.2 °F 15.6 °F 61% 30.17 in 10.0 mi WNW 4.6 mph - N/A   Clear
10:12 PM 28.2 °F 24.4 °F 15.4 °F 59% 30.19 in 10.0 mi SE 3.5 mph - N/A   Clear
10:32 PM 27.5 °F 23.6 °F 15.3 °F 60% 30.20 in 10.0 mi SE 3.5 mph - N/A   Clear
10:52 PM 27.1 °F - 14.9 °F 60% 30.21 in 10.0 mi Calm Calm - N/A   Clear
11:12 PM 24.6 °F 20.3 °F 15.1 °F 67% 30.23 in 10.0 mi SSE 3.5 mph - N/A   Clear
11:32 PM 27.0 °F - 16.2 °F 64% 30.24 in 10.0 mi Calm Calm - N/A   Clear
11:52 PM 27.3 °F 19.9 °F 15.3 °F 61% 30.25 in 10.0 mi ESE 6.9 mph - N/A   Clear